星链-4193 (STARLINK-4193 )

导读

STARLINK-4193是美国太空探索技术公司星链(Starlink)星座中的卫星,于2022年6月17日发射升空,归属星链互联网卫星星座组网,为全球提供低延迟、高速率的卫星互联网服务,运行在近地轨道,是星链大规模组网建设中的组成单元。

Basic Information
目录编号:
52875
目录名称:
STARLINK-4193
国际标识:
2022-062AX
轨道中心:
EARTH
卫星名称:
星链-4193
卫星全名:
星链-4193 (STARLINK-4193 )
卫星状态:
在轨 (已飞行1540 天)
发射日期:
2022-06-17 UTC
国别 :
美国 (US)
星等 :
--
Orbit Information
数据来源 国际轨道数据 AOE轨道数据
星历时间 2026-09-03T19:46:01+0800
20小时前
查看轨道信息
2026-09-01T02:00:00+0800
3天前
查看轨道信息
半长轴 6840.88km 6840.856km
偏心率 0.000132 0.000158
轨道倾角 53.158° 53.160°
近地点辐角 78.993° 82.904°
升交点赤经 282.933° 295.747°
平近点角 281.122° 251.875°
近地点 461.84km 461.638km
远地点 463.646km 463.8km
周期 93.849分钟 93.848分钟
每日圈数 15.343868 15.34395
Detailed Information
固有亮度:
5
最大亮度:
2.5
卫星平台:
Starlink v1.5
覆盖范围:
全球
运营商:
太空探索技术公司
运营商所在国:
美国
制造商(研发单位):
太空探索技术公司
制造商所在国:
美国
使用方式:
暂无
Satellite Introduction
星链(Starlink)计划是由太空探索技术公司(SpaceX)提出的一个巨型低轨卫星互联网星座项目,计划在2019年至2024年间在太空搭建由约1.2万颗卫星组成的“星链”网络,其中1584颗将部署在地球上空550千米处的近地轨道,并从2020年开始工作。该卫星仍在工作。
2D Orbit Map
3D Orbit Map
Orbit Altitude Analysis Chart
Orbit Inclination Analysis Chart
Orbit Comprehensive Analysis Chart
View Comprehensive Chart